Weather History for Alma, GA

Change the Weather History Date:

Wednesday, September 5, 2012

  Actual Average Record
Temperature  
Mean Temperature 80 °F 79 °F  
Max Temperature 90 °F 89 °F 95 °F (1951)
Min Temperature 70 °F 70 °F 55 °F (1997)
Degree Days  
Heating Degree Days 0 0  
Month to date heating degree days 0 0  
Since 1 July heating degree days 0 0  
Cooling Degree Days 15 14  
Month to date cooling degree days 87 73  
Year to date cooling degree days 2194 1980  
Growing Degree Days 28 (Base 50)    
Moisture  
Dew Point 71 °F    
Average Humidity 78    
Maximum Humidity 100    
Minimum Humidity 55    
Precipitation  
Precipitation T in 0.14 in 3.16 in (2003)
Month to date precipitation 0.51 0.70  
Year to date precipitation 31.30 34.91  
Snow  
Snow 0.00 in 0.00 in 0.00 in ()
Month to date snowfall 0.0 0.0  
Since 1 July snowfall 0.0 0.0  
Since 1 September snowfall 0.0 0.0  
Snow Depth 0.00 in    
Sea Level Pressure  
Sea Level Pressure 29.95 in    
Wind  
Wind Speed 3 mph (South)    
Max Wind Speed 20 mph    
Max Gust Speed 25 mph    
Visibility 4 miles    
Events Fog , Rain    
T = Trace of Precipitation, MM = Missing Value Source: NWS Daily Summary

Daily Weather History Graph

Daily Weather History Graph

Search for Another Location

Airport:

Trip Planner

Search our weather history database for the weather conditions in past years. The results will help you decide how hot, cold, wet, or windy it might be!

Date:

Astronomy

Sep. 05, 2012 Rise Set
Actual Time 7:08 AM EDT 7:48 PM EDT
Civil Twilight 6:43 AM EDT 8:12 PM EDT
Nautical Twilight 6:14 AM EDT 8:41 PM EDT
Astronomical Twilight 5:45 AM EDT 9:11 PM EDT
Moon 10:41 PM EDT (9/5) 11:48 AM EDT (9/5)
Length of Visible Light 13h 28m
Length of Day
12h 39m
Waning Gibbous, 76% of the Moon is Illuminated
Sep 5
Waning Gibbous
Sep 8
Last Quarter
Sep 15
New
Sep 22
First Quarter
Sep 29
Full

Hourly Weather History & Observations

Time (EDT) Temp. Heat Index Dew Point Humidity Pressure Visibility Wind Dir Wind Speed Gust Speed Precip Events Conditions
12:26 AM 71.6 °F - 71.6 °F 100% 29.97 in 0.8 mi Calm Calm - N/A   Mist
12:33 AM 71.6 °F - 71.6 °F 100% 29.97 in 0.5 mi Calm Calm - N/A Fog Fog
12:53 AM 72.0 °F - 70.0 °F 93% 29.96 in 0.8 mi Calm Calm - N/A   Mostly Cloudy
12:59 AM 71.6 °F - 69.8 °F 94% 29.97 in 2.0 mi Calm Calm - N/A   Mostly Cloudy
1:13 AM 71.6 °F - 71.6 °F 100% 29.96 in 4.0 mi Calm Calm - N/A   Scattered Clouds
1:22 AM 71.6 °F - 71.6 °F 100% 29.96 in 1.8 mi Calm Calm - N/A   Scattered Clouds
1:29 AM 73.4 °F - 71.6 °F 94% 29.96 in 1.0 mi Calm Calm - N/A   Mostly Cloudy
1:39 AM 73.4 °F - 71.6 °F 94% 29.96 in 3.0 mi SSE 3.5 mph - N/A   Mostly Cloudy
1:53 AM 73.0 °F - 72.0 °F 96% 29.95 in 4.0 mi SSE 3.5 mph - N/A   Mostly Cloudy
2:09 AM 73.4 °F - 71.6 °F 94% 29.95 in 1.8 mi South 3.5 mph - N/A   Mostly Cloudy
2:25 AM 73.4 °F - 71.6 °F 94% 29.95 in 3.0 mi South 3.5 mph - N/A   Overcast
2:46 AM 73.4 °F - 71.6 °F 94% 29.96 in 1.8 mi Calm Calm - N/A   Overcast
2:53 AM 73.0 °F - 71.1 °F 93% 29.94 in 1.2 mi Calm Calm - N/A   Overcast
3:07 AM 71.6 °F - 71.6 °F 100% 29.95 in 0.8 mi Calm Calm - N/A   Overcast
3:31 AM 71.6 °F - 71.6 °F 100% 29.94 in 1.5 mi ESE 3.5 mph - N/A   Overcast
3:38 AM 71.6 °F - 71.6 °F 100% 29.95 in 3.0 mi Calm Calm - N/A   Mostly Cloudy
3:51 AM 71.6 °F - 69.8 °F 94% 29.94 in 3.0 mi Calm Calm - N/A   Scattered Clouds
3:53 AM 72.0 °F - 71.1 °F 97% 29.94 in 3.0 mi Calm Calm - N/A   Scattered Clouds
4:03 AM 71.6 °F - 69.8 °F 94% 29.95 in 2.0 mi Calm Calm - N/A   Partly Cloudy
4:07 AM 71.6 °F - 69.8 °F 94% 29.95 in 1.0 mi Calm Calm - N/A   Mist
4:15 AM 71.6 °F - 69.8 °F 94% 29.94 in 0.5 mi Calm Calm - N/A Fog Fog
4:33 AM 71.6 °F - 69.8 °F 94% 29.95 in 0.2 mi Calm Calm - N/A Fog Fog
4:44 AM 71.6 °F - 69.8 °F 94% 29.94 in 0.5 mi Calm Calm - N/A Fog Fog
4:53 AM 71.1 °F - 69.1 °F 93% 29.93 in 0.5 mi Calm Calm - N/A Fog Fog
5:07 AM 71.6 °F - 69.8 °F 94% 29.94 in 2.0 mi Calm Calm - N/A   Mostly Cloudy
5:13 AM 71.6 °F - 69.8 °F 94% 29.94 in 4.0 mi Calm Calm - N/A   Scattered Clouds
5:21 AM 69.8 °F - 69.8 °F 100% 29.94 in 1.0 mi Calm Calm - N/A   Mist
5:28 AM 69.8 °F - 69.8 °F 100% 29.95 in 0.2 mi Calm Calm - N/A Fog Fog
5:53 AM 70.0 °F - 69.1 °F 97% 29.94 in 0.5 mi Calm Calm - N/A Fog Fog
6:38 AM 69.8 °F - 69.8 °F 100% 29.95 in 0.2 mi Calm Calm - N/A Fog Fog
6:49 AM 69.8 °F - 69.8 °F 100% 29.95 in 0.5 mi Calm Calm - N/A Fog Fog
6:53 AM 70.0 °F - 69.1 °F 97% 29.95 in 0.5 mi Calm Calm - N/A Fog Fog
7:01 AM 69.8 °F - 69.8 °F 100% 29.95 in 0.2 mi Calm Calm - N/A Fog Fog
7:45 AM 71.6 °F - 69.8 °F 94% 29.96 in 0.8 mi Calm Calm - N/A   Mist
7:53 AM 73.0 °F - 71.1 °F 93% 29.96 in 2.0 mi Calm Calm - N/A   Mostly Cloudy
8:01 AM 73.4 °F - 71.6 °F 94% 29.97 in 4.0 mi Calm Calm - N/A   Mostly Cloudy
8:14 AM 73.4 °F - 71.6 °F 94% 29.97 in 4.0 mi SSE 3.5 mph - N/A   Partly Cloudy
8:53 AM 75.0 °F - 73.0 °F 94% 29.96 in 9.0 mi South 4.6 mph - N/A   Clear
9:53 AM 81.0 °F 86.2 °F 73.9 °F 79% 29.97 in 10.0 mi South 3.5 mph - N/A   Clear
10:53 AM 82.0 °F 87.4 °F 73.0 °F 74% 29.98 in 10.0 mi South 3.5 mph - N/A   Mostly Cloudy
11:53 AM 87.1 °F 93.6 °F 72.0 °F 61% 29.98 in 10.0 mi SSE 8.1 mph - N/A   Partly Cloudy
12:53 PM 86.0 °F 93.0 °F 73.0 °F 65% 29.96 in 10.0 mi Variable 4.6 mph - N/A   Mostly Cloudy
1:53 PM 88.0 °F 93.8 °F 71.1 °F 57% 29.95 in 10.0 mi Calm Calm - N/A   Scattered Clouds
2:53 PM 88.0 °F 93.8 °F 71.1 °F 57% 29.93 in 10.0 mi SSE 4.6 mph - N/A   Mostly Cloudy
3:53 PM 88.0 °F 92.9 °F 70.0 °F 55% 29.91 in 10.0 mi South 10.4 mph 20.7 mph N/A   Mostly Cloudy
4:18 PM 80.6 °F 84.6 °F 71.6 °F 74% 29.94 in 8.0 mi WSW 15.0 mph - 0.00 in Rain Light Rain
4:53 PM 78.1 °F - 72.0 °F 81% 29.93 in 10.0 mi West 10.4 mph - 0.00 in   Overcast
6:53 PM 78.1 °F - 71.1 °F 79% 29.91 in 10.0 mi Calm Calm - N/A   Scattered Clouds
7:53 PM 77.0 °F - 72.0 °F 84% 29.92 in 10.0 mi Calm Calm - N/A   Clear
8:53 PM 73.9 °F - 72.0 °F 93% 29.93 in 9.0 mi Calm Calm - N/A   Clear
9:53 PM 73.9 °F - 71.1 °F 91% 29.94 in 7.0 mi Calm Calm - N/A   Clear
10:53 PM 73.9 °F - 72.0 °F 93% 29.94 in 8.0 mi SE 3.5 mph - N/A   Clear
11:53 PM 73.0 °F - 71.1 °F 93% 29.96 in 5.0 mi Calm Calm - N/A   Clear